Flag for Australia Weather past 2 weeks in Adelaide, South Australia, Australia

57 °F

Passing clouds.

Feels Like: 57 °F
Forecast: 51 / 68 °F
Wind: 3 mph from Northeast

Location: Adelaide Airport

Current Time: Nov 28, 2015 at 8:29:01 AM

Latest Report: Nov 28, 2015 at 7:30 AM

Visibility: N/A

Pressure: 30.07 "Hg

Humidity: 72%

Dew point: 48 °F

Location of AdelaideLocation

Historic Weather in Adelaide — Graph


Adelaide temperature yesterday

Maximum temperature yesterday: 66 °F (at 3:30 PM)
Minimum temperature yesterday: 46 °F (at 5:00 AM)
Average temperature yesterday: 58 °F

Past Weeks' High & Low Weather Summary

High100 °F (Nov 18, 4:30 PM)88% (Nov 16, 5:30 AM)30.30 "Hg (Nov 16, 5:30 AM)
Low46 °F (Nov 27, 5:00 AM)7% (Nov 18, 4:30 PM)29.53 "Hg (Nov 25, 1:00 PM)
Average65 °F53%30.01 "Hg
* Reported Nov 13 6:30 AM — Nov 28 6:30 AM, Adelaide, Weather by CustomWeather, © 2015

Note: Actual official high and low records may vary slightly from our data, if they occured in-between our weather recording intervals... More about our weather records


Adelaide weather history for previous 24 hours

Time TempWeatherWind HumidityBarometerVisibility
6:30 AM
Sat, Nov 28
52 °FPassing clouds.6 mph82%30.07 "HgN/A
6:00 AM52 °FPassing clouds.5 mph72%30.07 "HgN/A
5:30 AM50 °FPassing clouds.3 mph82%30.07 "HgN/A
5:00 AM50 °FClear.3 mph88%30.07 "Hg10 mi
4:30 AM52 °FClear.No wind77%30.04 "Hg10 mi
4:00 AM54 °FClear.3 mph72%30.04 "Hg10 mi
3:30 AM52 °FClear.3 mph82%30.04 "Hg10 mi
3:00 AM54 °FClear.6 mph77%30.04 "Hg10 mi
2:30 AM54 °FClear.7 mph77%30.07 "Hg10 mi
2:00 AM54 °FClear.7 mph77%30.07 "Hg10 mi
1:30 AM55 °FClear.7 mph72%30.09 "Hg10 mi
12:30 AM55 °FClear.6 mph72%30.09 "Hg10 mi
12:00 AM55 °FClear.8 mph72%30.09 "Hg10 mi
11:30 PM
Fri, Nov 27
57 °FClear.7 mph67%30.09 "Hg10 mi
11:00 PM57 °FClear.7 mph67%30.09 "Hg10 mi
10:30 PM59 °FClear.9 mph59%30.09 "Hg10 mi
10:00 PM59 °FClear.9 mph59%30.09 "Hg10 mi
9:30 PM61 °FClear.10 mph52%30.09 "Hg10 mi
9:00 PM61 °FClear.9 mph52%30.09 "Hg10 mi
8:30 PM61 °FSunny.13 mph59%30.09 "Hg10 mi
8:00 PM61 °FSunny.13 mph59%30.09 "Hg10 mi
7:30 PM63 °FSunny.13 mph56%30.09 "Hg10 mi
7:00 PM63 °FSunny.15 mph52%30.09 "Hg10 mi
6:30 PM63 °FSunny.17 mph52%30.09 "Hg10 mi
6:00 PM63 °FSunny.14 mph49%30.09 "Hg10 mi
5:30 PM63 °FSunny.16 mph49%30.09 "Hg10 mi
4:30 PM64 °FSunny.16 mph46%30.09 "Hg10 mi
3:30 PM66 °FOvercast.17 mph40%30.09 "HgN/A
2:30 PM64 °FPartly sunny.16 mph40%30.12 "HgN/A
1:30 PM64 °FPartly sunny.14 mph37%30.12 "HgN/A
1:00 PM64 °FPartly sunny.14 mph40%30.15 "HgN/A
12:30 PM64 °FPartly sunny.14 mph40%30.15 "HgN/A
12:00 PM64 °FPartly sunny.14 mph34%30.15 "HgN/A
11:30 AM64 °FPartly sunny.13 mph34%30.18 "HgN/A
11:00 AM63 °FScattered clouds.12 mph37%30.18 "HgN/A
10:30 AM63 °FPassing clouds.12 mph39%30.18 "HgN/A
10:00 AM63 °FPassing clouds.12 mph42%30.15 "HgN/A
9:30 AM61 °FPassing clouds.9 mph52%30.15 "HgN/A
8:30 AM59 °FPassing clouds.6 mph51%30.15 "HgN/A
8:00 AM59 °FPassing clouds.1 mph51%30.15 "HgN/A
Weather by CustomWeather, © 2015

See weather overviewHow to use our weather pages